User: anonymous   Login
Location: Unspecified
(0.0000°N, 0.0000°E)
Time: 18:10:23
(UTC+00:00)
Language:

OBJECT K - Orbit

View from above orbital plane
View from above orbital plane
View from above satellite
View from above satellite

Ground track
Ground track

The orbit is defined by the following mean orbital elements,

1 61903U          26145.49821396 +.00000000 +00000-0 +49566-3 0 00005
2 61903  97.4110 222.5138 0011383 117.6080 242.6318 15.30035042    04
Epoch (UTC): 25 May 2026 11:57:25
Eccentricity: 0.0011383
inclination: 97.4110°
perigee height: 468 km
apogee height: 484 km
right ascension of ascending node: 222.5138°
argument of perigee: 117.6080°
revolutions per day: 15.30035042
mean anomaly at epoch: 242.6318°

The dashed part of the orbit path shows where the satellite is in the earth's shadow,  

DLR